TimePST,TemperatureF,Dew PointF,Humidity,Sea Level PressureIn,VisibilityMPH,Wind Direction,Wind SpeedMPH,Gust SpeedMPH,PrecipitationIn,Events,Conditions,WindDirDegrees,DateUTC
12:53 AM,39.9,34.0,79,29.95,10.0,SSE,9.2,-,N/A,,Overcast,150,2013-02-23 08:53:00
1:53 AM,39.9,34.0,79,29.97,10.0,SSE,8.1,-,N/A,,Overcast,150,2013-02-23 09:53:00
2:53 AM,39.9,34.0,79,29.98,10.0,SSE,5.8,-,N/A,,Overcast,150,2013-02-23 10:53:00
3:53 AM,39.9,35.1,83,30.00,10.0,SSE,5.8,-,N/A,,Overcast,150,2013-02-23 11:53:00
4:53 AM,39.9,36.0,86,30.03,10.0,SE,4.6,-,N/A,,Overcast,130,2013-02-23 12:53:00
5:53 AM,41.0,36.0,82,30.04,10.0,ESE,4.6,-,N/A,,Overcast,110,2013-02-23 13:53:00
6:53 AM,41.0,36.0,82,30.08,10.0,SE,3.5,-,N/A,,Overcast,130,2013-02-23 14:53:00
7:53 AM,41.0,36.0,82,30.12,10.0,SE,3.5,-,N/A,,Overcast,140,2013-02-23 15:53:00
8:53 AM,42.1,36.0,79,30.14,10.0,SE,6.9,-,N/A,,Overcast,130,2013-02-23 16:53:00
9:53 AM,43.0,36.0,76,30.18,10.0,SE,5.8,-,N/A,,Overcast,140,2013-02-23 17:53:00
10:53 AM,44.1,36.0,73,30.21,10.0,SSE,5.8,-,N/A,,Overcast,150,2013-02-23 18:53:00
11:53 AM,46.0,36.0,68,30.22,10.0,SSE,6.9,-,N/A,,Overcast,150,2013-02-23 19:53:00
12:00 PM,46.4,35.6,66,30.21,10.0,SSE,4.6,-,N/A,,Overcast,150,2013-02-23 20:00:00
12:53 PM,46.9,34.0,61,30.22,10.0,SSE,4.6,-,N/A,,Overcast,150,2013-02-23 20:53:00
1:53 PM,48.0,34.0,58,30.23,10.0,Calm,Calm,-,N/A,,Overcast,0,2013-02-23 21:53:00
2:53 PM,50.0,33.1,52,30.25,10.0,SSW,6.9,-,N/A,,Mostly Cloudy,200,2013-02-23 22:53:00
3:53 PM,48.9,33.1,54,30.27,10.0,South,6.9,-,N/A,,Mostly Cloudy,190,2013-02-23 23:53:00
4:53 PM,46.9,34.0,61,30.28,10.0,Variable,3.5,-,N/A,,Mostly Cloudy,0,2013-02-24 00:53:00
5:53 PM,46.0,35.1,66,30.30,10.0,Calm,Calm,-,N/A,,Overcast,0,2013-02-24 01:53:00
6:53 PM,45.0,35.1,68,30.33,10.0,SSE,4.6,-,N/A,,Overcast,160,2013-02-24 02:53:00
7:53 PM,44.1,34.0,68,30.36,10.0,ESE,3.5,-,N/A,,Overcast,110,2013-02-24 03:53:00
8:53 PM,44.1,34.0,68,30.37,10.0,SE,4.6,-,N/A,,Overcast,130,2013-02-24 04:53:00
9:53 PM,42.1,33.1,70,30.38,10.0,SE,4.6,-,N/A,,Mostly Cloudy,140,2013-02-24 05:53:00
10:53 PM,42.1,33.1,70,30.39,10.0,SE,4.6,-,N/A,,Overcast,140,2013-02-24 06:53:00
11:53 PM,42.1,34.0,73,30.40,10.0,SE,4.6,-,N/A,,Overcast,140,2013-02-24 07:53:00